Regional Weather Roundup
Issued by NWS

Home | Current Version | Previous Version | Text Only | Print | Product List | Glossary On
Versions: 1 2 3 4 5 6 7 8 9 10 11 12 13 14 15 16 17 18 19 20 21 22 23 24 25 26 27 28 29 30 31 32 33 34 35 36 37 38 39 40 41 42 43 44 45 46 47 48 49 50
000
ASUS45 KBOU 011207
RWRCO

WEATHER ROUNDUP FOR COLORADO
NATIONAL WEATHER SERVICE DENVER/BOULDER CO
600 AM MDT FRI AUG 01 2014

NOTE: "FAIR" INDICATES FEW OR NO CLOUDS BELOW 12000 FEET WITH NO
SIGNIFICANT WEATHER AND/OR OBSTRUCTIONS TO VISIBILITY.

COZ001>005-013-030-031-011300-
...NORTHWEST COLORADO...

CITY           SKY/WX    TMP DP  RH WIND       PRES   REMARKS
CRAIG          CLOUDY    50  49  96 E3        30.25R
HAYDEN         MOCLDY    55  43  62 E9        30.27S
MEEKER         MOCLDY    56  48  74 NE5       30.27R
MOUNT WERNER   NOT AVBL
STEAMBOAT SPGS MOCLDY    51  45  82 CALM      30.30S
WALDEN         CLEAR     37  36  93 SE7       30.40S
$$

COZ006>008-011-011300-
...WEST CENTRAL VALLEYS...

CITY           SKY/WX    TMP DP  RH WIND       PRES   REMARKS
GRAND JUNCTION PTCLDY    61  53  75 E5        30.17R
MONTROSE       LGT RAIN  64  54  69 SE8       30.24R
EAGLE          MOCLDY    54  52  94 E8        30.33S
RIFLE          PTCLDY    62  52  69 CALM      30.22R
DELTA          LGT RAIN  66  56  70 N6        30.20S
NUCLA          CLOUDY    63  52  67 CALM      30.28R
$$

COZ017>023-064>068-011300-
...SOUTHWEST COLORADO...

CITY           SKY/WX    TMP DP  RH WIND       PRES   REMARKS
DURANGO        MOCLDY    58  51  78 CALM      30.32R
CORTEZ         CLEAR     58  52  80 CALM      30.25R
PAGOSA SPRINGS CLOUDY    55  54  94 NW7       30.39R
TELLURIDE      CLOUDY    52  48  87 E6        30.44S
WOLF CREEK PAS NOT AVBL
$$

COZ009-010-012-014-032>034-037-058>063-011300-
...CENTRAL COLORADO...

CITY           SKY/WX    TMP DP  RH WIND       PRES   REMARKS
ASPEN          LGT RAIN  52  50  93 SW6       30.39R
BUENA VISTA    CLOUDY    51  49  93 CALM      30.42S
COPPER MTN     MOCLDY    45  37  76 W5        30.62R
BERTHOUD PASS  FAIR      36  36 100 SE6       30.66S
COTTONWOOD PAS CLOUDY    50  45  81 W5        30.51S
GUNNISON       MOCLDY    52  45  76 NE6       30.41R
KREMMLING      PTCLDY    50  45  81 CALM      30.38R
LEADVILLE      CLOUDY    46  44  93 CALM        N/A
MONARCH PASS   MOCLDY    41  37  87 S8        30.72S
SALIDA         CLOUDY    55  53  95 SW3       30.47R
SUNLIGHT       CLOUDY    50  43  76 SE3       30.56R
WILKERSON PASS CLOUDY    41  39  93 S7        30.62S
$$

COZ069>075-011300-
...SAN LUIS VALLEY/SANGRE DE CRISTO MOUNTAINS...

CITY           SKY/WX    TMP DP  RH WIND       PRES   REMARKS
ALAMOSA        MOCLDY    50  49  96 W3        30.38R
LA VETA PASS   CLOUDY    46  45  93 CALM      30.52S
SAGUACHE       NOT AVBL
$$

COZ035-036-038>040-011300-
...NORTHERN COLORADO FRONT RANGE...

CITY           SKY/WX    TMP DP  RH WIND       PRES   REMARKS
DENVER INTL AP MOCLDY    58  53  84 SW7       30.26S
DMNS CITY PARK   N/A     58  54  87 S3        30.26S
AURORA         MOCLDY    57  53  88 S8        30.28S
FRONT RANGE AP PTCLDY    57  54  88 S5        30.27S
ERIE MUNI ARPT PTCLDY    55  52  90 CALM      30.25S
BOULDER MUN AP PTCLDY    61  46  59 CALM      30.25S
CENTENNIAL     PTCLDY    55  52  89 S3        30.29R
BROOMFIELD     PTCLDY    57  50  77 CALM      30.28S
FORT COLLINS   MOCLDY    55  50  82 N3        30.26S
LONGMONT       MOCLDY    58  49  72 CALM      30.26S
$$

COZ041-046-047-076>085-087-088-011300-
...PIKES PEAK/PALMER DIVIDE AND SOUTHERN FOOTHILLS...

CITY           SKY/WX    TMP DP  RH WIND       PRES   REMARKS
COLO. SPRINGS  MOCLDY    54  51  90 NW5       30.33R
A. F. ACADEMY  PTCLDY    50  50  99 N3        30.34R
ELLICOTT       PTCLDY    52  50  93 NE3       30.31R
FALCON         MOCLDY    51  47  88 CALM      30.36S
FORT CARSON    CLOUDY    55  52  88 NW5       30.31R
LIMON          CLEAR     49  49 100 N3        30.27S FOG
MONUMENT HILL  PTCLDY    46  43  87 S6        30.35S
TRINIDAD       CLOUDY    58  55  90 SW6       30.30R
$$

COZ042>045-048>051-090-091-011300-
...NORTHEAST COLORADO...

CITY           SKY/WX    TMP DP  RH WIND       PRES   REMARKS
GREELEY ARPT   NOT AVBL
AKRON          PTCLDY    59  54  83 W9        30.22S
BURLINGTON     CLEAR     56  52  86 W8        30.20S
WRAY             N/A     58  57  97 SW5       30.17S
STERLING       PTCLDY    55  54  94 SW5       30.18S
HOLYOKE        CLEAR     59  55  88 CALM      30.17R
FORT MORGAN    PTCLDY    55  53  92 W7        30.22F
$$

COZ086-089-092>099-011300-
...SOUTHEAST COLORADO...

CITY           SKY/WX    TMP DP  RH WIND       PRES   REMARKS
PUEBLO         CLOUDY    62  60  93 CALM      30.25R
LA JUNTA       PTCLDY    59  55  87 N3        30.21S
LAMAR          CLEAR     56  54  93 SW5       30.18S
SPRINGFIELD      N/A     58  55  90 W3        30.23R
$$



USA.gov is the U.S. government's official web portal to all federal, state and local government web resources and services.